User: anonymous
Location: Fort Wayne
(41.1310°N, 85.1290°W)
Time: 02:24:58
(UTC-04:00)
Language:

Iridium 37 - Orbit

View from above orbital plane
View from above orbital plane
View from above satellite
View from above satellite

Ground track
Ground track

The orbit data is extracted from the following two-line orbital elements,

1 24968U 97056D   14204.46555793  .00000017  00000-0 -83133-6 0  8870
2 24968 086.3938 041.8171 0002149 102.3512 257.7924 14.34218113880640
Epoch (UTC): 23 July 2014 11:10:24
Eccentricity: 0.0002149
inclination: 86.3938°
perigee height: 776 km
apogee height: 779 km
right ascension of ascending node: 41.8171°
argument of perigee: 102.3512°
revolutions per day: 14.34218113
mean anomaly at epoch: 257.7924°
orbit number at epoch: 88064

The dashed part of the orbit path shows where the satellite is in the earth's shadow,  

DLR